カタログに戻る

SL-8 R/B

運用中LEO
NORAD 5181·ROCKET BODY·🇷🇺 Russia

打ち上げ Apr 28, 1971 から Plesetsk Cosmodrome

Loading…

次のパス (今後24時間)

TLE

最新Source: Space-Track

元期: Sep 14, 2026, 13:56 UTC

1 05181U 71038B   26257.58109334 -.00000083  00000-0 -15341-3 0  9999
2 05181  73.9971  91.6005 0055762 316.1399  59.1187 13.20782163669444

AllMySatでSL-8 R/Bをリアルタイム追跡

Download on the App Store